Time,TemperatureF,DewpointF,PressureIn,WindDirection,WindDirectionDegrees,WindSpeedMPH,WindSpeedGustMPH,Humidity,HourlyPrecipIn,Conditions,Clouds,dailyrainin,SoftwareType,DateUTC
2013-09-15 00:02:00,-999.0,-99.9,30.06,West,275,0.0,0.0,-999,-99.99,,,-99.99,,2013-09-15 04:02:00,
2013-09-15 00:24:00,51.0,49.0,30.06,West,275,0.0,0.0,94,0.00,,,0.00,,2013-09-15 04:24:00,
2013-09-15 00:54:00,51.0,49.0,30.05,West,275,0.0,1.0,94,0.00,,,0.00,,2013-09-15 04:54:00,
2013-09-15 01:13:00,51.0,49.0,30.05,West,275,0.0,0.0,94,0.00,,,0.00,,2013-09-15 05:13:00,
2013-09-15 01:22:00,51.0,49.0,30.06,West,275,0.0,0.0,94,0.00,,,0.00,,2013-09-15 05:22:00,
2013-09-15 01:52:00,51.0,49.0,30.05,West,275,0.0,1.0,94,0.00,,,0.00,,2013-09-15 05:52:00,
2013-09-15 02:12:00,51.0,49.0,30.05,West,275,0.0,0.0,94,0.00,,,0.00,,2013-09-15 06:12:00,
2013-09-15 02:21:00,50.0,48.0,30.04,West,275,0.0,0.0,94,0.00,,,0.00,,2013-09-15 06:21:00,
2013-09-15 02:52:00,50.0,48.0,30.04,West,275,0.0,0.0,94,0.00,,,0.00,,2013-09-15 06:52:00,
2013-09-15 03:11:00,50.0,48.0,30.04,West,275,0.0,0.0,94,0.00,,,0.00,,2013-09-15 07:11:00,
2013-09-15 03:22:00,51.0,50.0,30.04,West,275,0.0,1.0,95,0.00,,,0.00,,2013-09-15 07:22:00,
2013-09-15 03:53:00,51.0,49.0,30.04,West,275,0.0,0.0,94,0.00,,,0.00,,2013-09-15 07:53:00,
2013-09-15 04:11:00,51.0,49.0,30.04,West,275,0.0,0.0,94,0.00,,,0.00,,2013-09-15 08:11:00,
2013-09-15 04:22:00,51.0,49.0,30.04,West,275,0.0,0.0,94,0.00,,,0.00,,2013-09-15 08:22:00,
2013-09-15 04:52:00,52.0,50.0,30.05,West,275,0.0,0.0,94,0.00,,,0.00,,2013-09-15 08:52:00,
2013-09-15 05:12:00,52.0,50.0,30.05,West,275,0.0,0.0,94,0.00,,,0.00,,2013-09-15 09:12:00,
2013-09-15 05:22:00,52.0,50.0,30.05,West,275,0.0,0.0,93,0.00,,,0.00,,2013-09-15 09:22:00,
2013-09-15 05:53:00,52.0,50.0,30.05,West,275,0.0,0.0,93,0.00,,,0.00,,2013-09-15 09:53:00,
2013-09-15 06:13:00,52.0,50.0,30.05,West,275,0.0,0.0,93,0.00,,,0.00,,2013-09-15 10:13:00,
2013-09-15 06:23:00,52.0,50.0,30.05,West,275,0.0,0.0,93,0.00,,,0.00,,2013-09-15 10:23:00,
2013-09-15 06:53:00,52.0,50.0,30.05,West,275,0.0,0.0,93,0.00,,,0.00,,2013-09-15 10:53:00,
2013-09-15 07:22:00,53.0,49.0,30.04,West,275,0.0,0.0,86,0.00,,,0.00,,2013-09-15 11:22:00,
2013-09-15 07:52:00,54.0,51.0,30.02,West,275,0.0,1.0,88,0.00,,,0.00,,2013-09-15 11:52:00,
2013-09-15 08:12:00,54.0,50.0,30.03,West,275,0.0,2.0,87,0.00,,,0.00,,2013-09-15 12:12:00,
2013-09-15 08:21:00,54.0,51.0,30.04,West,275,0.0,0.0,88,0.00,,,0.00,,2013-09-15 12:21:00,
2013-09-15 08:52:00,54.0,51.0,30.03,West,275,0.0,0.0,88,0.00,,,0.00,,2013-09-15 12:52:00,
2013-09-15 09:11:00,54.0,51.0,30.03,West,275,0.0,1.0,89,0.00,,,0.00,,2013-09-15 13:11:00,
2013-09-15 09:22:00,55.0,52.0,30.02,West,275,0.0,1.0,89,0.00,,,0.00,,2013-09-15 13:22:00,
2013-09-15 09:53:00,56.0,52.0,30.03,West,275,0.0,2.0,86,0.00,,,0.00,,2013-09-15 13:53:00,
2013-09-15 10:22:00,57.0,52.0,30.03,NNW,333,0.0,2.0,83,0.00,,,0.00,,2013-09-15 14:22:00,
2013-09-15 15:22:00,59.0,56.0,30.05,WSW,242,0.0,0.0,90,0.09,,,0.09,,2013-09-15 19:22:00,
2013-09-15 15:52:00,58.0,55.0,30.05,WSW,242,0.0,4.0,91,0.14,,,0.14,,2013-09-15 19:52:00,
2013-09-15 16:11:00,57.0,55.0,30.05,WSW,248,0.0,6.0,93,0.13,,,0.20,,2013-09-15 20:11:00,
2013-09-15 16:22:00,58.0,56.0,30.05,WSW,248,0.0,1.0,94,0.12,,,0.21,,2013-09-15 20:22:00,
2013-09-15 16:53:00,58.0,57.0,30.05,WSW,248,0.0,2.0,95,0.13,,,0.27,,2013-09-15 20:53:00,
2013-09-15 17:11:00,57.0,55.0,30.05,WSW,248,0.0,1.0,94,0.08,,,0.28,,2013-09-15 21:11:00,
2013-09-15 17:22:00,57.0,56.0,30.06,WSW,248,0.0,0.0,95,0.08,,,0.29,,2013-09-15 21:22:00,
2013-09-15 17:54:00,58.0,57.0,30.06,WSW,248,0.0,0.0,95,0.04,,,0.31,,2013-09-15 21:54:00,
2013-09-15 18:14:00,58.0,57.0,30.06,WSW,248,0.0,1.0,95,0.04,,,0.32,,2013-09-15 22:14:00,
2013-09-15 18:23:00,58.0,57.0,30.07,WSW,248,0.0,0.0,95,0.03,,,0.32,,2013-09-15 22:23:00,
2013-09-15 18:53:00,58.0,57.0,30.08,WSW,248,0.0,0.0,95,0.02,,,0.33,,2013-09-15 22:53:00,
2013-09-15 19:12:00,58.0,57.0,30.08,WSW,248,0.0,0.0,95,0.01,,,0.33,,2013-09-15 23:12:00,
2013-09-15 19:22:00,57.0,56.0,30.09,WSW,248,0.0,0.0,95,0.01,,,0.33,,2013-09-15 23:22:00,
2013-09-15 19:53:00,58.0,57.0,30.09,WSW,248,0.0,0.0,95,0.00,,,0.33,,2013-09-15 23:53:00,
2013-09-15 20:11:00,57.0,56.0,30.09,WSW,248,0.0,0.0,96,0.00,,,0.33,,2013-09-16 00:11:00,
2013-09-15 20:22:00,57.0,56.0,30.10,WSW,248,0.0,0.0,96,0.00,,,0.33,,2013-09-16 00:22:00,
2013-09-15 20:42:00,57.0,56.0,30.10,WSW,248,0.0,0.0,96,0.00,,,0.33,,2013-09-16 00:42:00,
2013-09-15 20:52:00,57.0,56.0,30.11,WSW,248,0.0,0.0,96,0.00,,,0.33,,2013-09-16 00:52:00,
2013-09-15 21:12:00,57.0,56.0,30.11,WSW,248,0.0,0.0,96,0.00,,,0.33,,2013-09-16 01:12:00,
2013-09-15 21:21:00,57.0,56.0,30.11,WSW,248,0.0,1.0,96,0.00,,,0.33,,2013-09-16 01:21:00,
2013-09-15 21:42:00,57.0,56.0,30.12,WSW,248,0.0,0.0,96,0.00,,,0.33,,2013-09-16 01:42:00,
2013-09-15 21:52:00,56.0,55.0,30.13,WSW,248,0.0,0.0,95,0.00,,,0.33,,2013-09-16 01:52:00,
2013-09-15 22:22:00,55.0,54.0,30.14,WSW,248,0.0,0.0,95,0.00,,,0.33,,2013-09-16 02:22:00,
2013-09-15 22:42:00,54.0,53.0,30.14,WSW,248,0.0,0.0,96,0.00,,,0.33,,2013-09-16 02:42:00,
2013-09-15 22:52:00,54.0,53.0,30.14,WSW,248,0.0,0.0,96,0.00,,,0.33,,2013-09-16 02:52:00,
2013-09-15 23:11:00,54.0,53.0,30.14,WSW,248,0.0,0.0,96,0.00,,,0.33,,2013-09-16 03:11:00,
2013-09-15 23:22:00,54.0,53.0,30.15,WSW,248,0.0,0.0,96,0.00,,,0.33,,2013-09-16 03:22:00,
2013-09-15 23:55:00,55.0,54.0,30.16,ESE,113,0.0,2.0,97,0.00,,,0.33,,2013-09-16 03:55:00,